| time (UTC) | temp C | wind direction | speed KPH | gust KPH | rain 1hr cm | rain 24hr cm | rain mn cm | humidity % | barometer mb |
| 20260502210110 | 8 | 0.0 | 0.0 | 0.00 | 0.33 | 0.33 | 48 | 1008.8 | |
| 20260502204558 | 8 | 0.0 | 0.0 | 0.00 | 0.33 | 0.33 | 52 | 1008.8 | |
| 20260502203056 | 8 | 0.0 | 0.0 | 0.00 | 0.33 | 0.33 | 53 | 1008.7 | |
| 20260502201556 | 9 | 0.0 | 0.0 | 0.00 | 0.33 | 0.33 | 50 | 1008.7 | |
| 20260502200056 | 10 | 0.0 | 0.0 | 0.00 | 0.33 | 0.33 | 53 | 1008.7 | |
| 20260502194559 | 10 | 0.0 | 0.0 | 0.00 | 0.33 | 0.33 | 50 | 1008.7 | |
| 20260502193100 | 10 | 0.0 | 0.0 | 0.00 | 0.33 | 0.33 | 55 | 1008.9 | |
| 20260502191601 | 9 | 0.0 | 0.0 | 0.00 | 0.33 | 0.33 | 55 | 1009.1 | |
| 20260502190107 | 9 | 0.0 | 0.0 | 0.00 | 0.33 | 0.33 | 61 | 1009.2 | |
| 20260502184602 | 9 | 0.0 | 0.0 | 0.00 | 0.33 | 0.33 | 63 | 1009.3 | |
| 20260502183110 | 9 | 0.0 | 0.0 | 0.00 | 0.33 | 0.33 | 65 | 1009.2 | |
| 20260502181553 | 9 | 0.0 | 0.0 | 0.00 | 0.33 | 0.33 | 66 | 1009.4 | |
| 20260502163059 | 5 | 0.0 | 0.0 | 0.00 | 0.33 | 0.33 | 82 | 1009.9 | |
| 20260502161624 | 5 | 0.0 | 0.0 | 0.00 | 0.33 | 0.33 | 83 | 1010.0 | |
| 20260502151605 | 4 | 0.0 | 0.0 | 0.00 | 0.33 | 0.33 | 87 | 1010.0 | |
| 20260502123055 | 4 | 0.0 | 0.0 | 0.05 | 0.30 | 0.30 | 91 | 1010.1 | |
| 20260502121559 | 4 | 0.0 | 0.0 | 0.03 | 0.28 | 0.28 | 92 | 1009.9 | |
| 20260502114555 | 4 | 0.0 | 0.0 | 0.00 | 0.28 | 0.25 | 92 | 1009.7 | |
| 20260502113055 | 4 | 0.0 | 0.0 | 0.00 | 0.28 | 0.25 | 93 | 1009.8 | |
| 20260502111605 | 4 | 0.0 | 0.0 | 0.00 | 0.28 | 0.25 | 94 | 1009.6 | |
| 20260502110057 | 3 | 0.0 | 0.0 | 0.00 | 0.28 | 0.25 | 94 | 1009.6 | |
| 20260502104553 | 3 | 0.0 | 0.0 | 0.00 | 0.28 | 0.25 | 95 | 1009.6 | |
| 20260502103055 | 3 | 0.0 | 0.0 | 0.00 | 0.28 | 0.25 | 95 | 1009.5 | |
| 20260502101556 | 3 | 0.0 | 0.0 | 0.00 | 0.28 | 0.25 | 95 | 1009.3 | |
| 20260502090113 | 3 | 0.0 | 0.0 | 0.05 | 0.28 | 0.25 | 95 | 1009.6 | |
| 20260502070104 | 3 | 0.0 | 0.0 | 0.03 | 0.15 | 0.13 | 94 | 1009.7 | |
| 20260502064554 | 3 | 0.0 | 0.0 | 0.00 | 0.13 | 0.10 | 93 | 1009.8 | |
| 20260502063057 | 3 | 0.0 | 0.0 | 0.00 | 0.13 | 0.10 | 93 | 1009.9 | |
| 20260502061556 | 3 | 0.0 | 0.0 | 0.00 | 0.13 | 0.10 | 92 | 1009.9 | |
| 20260502060058 | 3 | 0.0 | 0.0 | 0.05 | 0.13 | 0.10 | 91 | 1010.2 | |
| 20260502054555 | 3 | 0.0 | 0.0 | 0.08 | 0.13 | 0.10 | 90 | 1010.3 | |
| 20260502053122 | 3 | 0.0 | 0.0 | 0.08 | 0.13 | 0.10 | 88 | 1010.3 | |
| 20260502051609 | 3 | 0.0 | 0.0 | 0.08 | 0.13 | 0.10 | 87 | 1010.8 | |
| 20260502050057 | 4 | 0.0 | 0.0 | 0.05 | 0.08 | 0.05 | 86 | 1010.5 | |
| 20260502044556 | 4 | 0.0 | 0.0 | 0.03 | 0.05 | 0.03 | 85 | 1010.5 | |
| 20260502043110 | 4 | 0.0 | 0.0 | 0.03 | 0.05 | 0.03 | 81 | 1010.5 | |
| 20260502041633 | 5 | 0.0 | 0.0 | 0.03 | 0.05 | 0.03 | 79 | 1010.4 | |
| 20260502034600 | 6 | 0.0 | 0.0 | 0.00 | 0.03 | 0.03 | 71 | 1010.4 | |
| 20260502033109 | 6 | 0.0 | 0.0 | 0.00 | 0.03 | 0.03 | 64 | 1010.3 | |
| 20260502031556 | 6 | 0.0 | 0.0 | 0.00 | 0.03 | 0.03 | 65 | 1010.3 | |
| 20260502030058 | 6 | 0.0 | 0.0 | 0.00 | 0.03 | 0.03 | 64 | 1010.2 | |
| 20260502024600 | 6 | 0.0 | 0.0 | 0.00 | 0.03 | 0.03 | 63 | 1010.3 | |
| 20260502023059 | 6 | 0.0 | 0.0 | 0.00 | 0.03 | 0.03 | 63 | 1010.4 | |
| 20260502021557 | 6 | 0.0 | 0.0 | 0.00 | 0.03 | 0.03 | 60 | 1010.4 | |
| 20260502020106 | 6 | 0.0 | 0.0 | 0.00 | 0.03 | 0.03 | 58 | 1010.3 | |
| 20260502014558 | 7 | 0.0 | 0.0 | 0.00 | 0.03 | 0.03 | 59 | 1010.4 | |
| 20260502013054 | 7 | 0.0 | 0.0 | 0.00 | 0.03 | 0.03 | 57 | 1010.4 | |
| 20260502011553 | 7 | 0.0 | 0.0 | 0.00 | 0.03 | 0.03 | 55 | 1010.5 | |
| 20260502004601 | 7 | 0.0 | 0.0 | 0.00 | 0.03 | 0.03 | 53 | 1010.3 | |
| 20260502003056 | 7 | 0.0 | 0.0 | 0.00 | 0.03 | 0.03 | 53 | 1010.3 | |
| 20260502001601 | 7 | 0.0 | 0.0 | 0.00 | 0.03 | 0.03 | 52 | 1010.1 | |
| 20260502000057 | 7 | 0.0 | 0.0 | 0.00 | 0.03 | 0.03 | 50 | 1009.8 | |
| 20260501234558 | 7 | 0.0 | 0.0 | 0.00 | 0.03 | 0.03 | 50 | 1009.6 | |
| 20260501233107 | 7 | 0.0 | 0.0 | 0.00 | 0.03 | 0.03 | 48 | 1009.5 | |
| 20260501231628 | 8 | 0.0 | 0.0 | 0.00 | 0.03 | 0.03 | 46 | 1009.3 | |
| 20260501230145 | 8 | 0.0 | 0.0 | 0.00 | 0.03 | 0.03 | 47 | 1009.1 | |
| 20260501224556 | 8 | 0.0 | 0.0 | 0.00 | 0.03 | 0.03 | 44 | 1009.0 | |
| 20260501223117 | 9 | 0.0 | 0.0 | 0.00 | 0.03 | 0.03 | 44 | 1008.9 | |
| 20260501221554 | 10 | 0.0 | 0.0 | 0.00 | 0.03 | 0.03 | 41 | 1008.9 | |
| 20260501220055 | 10 | 0.0 | 0.0 | 0.00 | 0.03 | 0.03 | 42 | 1008.9 | |
| 20260501214558 | 9 | 0.0 | 0.0 | 0.00 | 0.03 | 0.03 | 46 | 1008.8 | |
| 20260501213101 | 9 | 0.0 | 0.0 | 0.00 | 0.03 | 0.03 | 46 | 1008.8 | |
| 20260501211556 | 10 | 0.0 | 0.0 | 0.00 | 0.03 | 0.03 | 43 | 1009.0 |